New Century, KS

7:03 AM CST on February 19, 2017 (GMT -0600)
New Century Aircenter

Weather History for KIXD - October, 2011

Change the Weather History Date:

Tuesday, October 4, 2011

  Actual Average Record
Temperature  
Mean Temperature 70 °F -  
Max Temperature 87 °F 69 °F 88 °F (2013)
Min Temperature 55 °F 47 °F 37 °F (2010)
Cooling Degree Days 6    
Growing Degree Days 20 (Base 50)    
Moisture  
Dew Point 41 °F    
Average Humidity 42    
Maximum Humidity 67    
Minimum Humidity 18    
Precipitation  
Precipitation 0.00 in - - ()
Sea Level Pressure  
Sea Level Pressure 30.16 in    
Wind  
Wind Speed 7 mph (SSE)    
Max Wind Speed 16 mph    
Max Gust Speed 17 mph    
Visibility 10 miles    
Events      
Averages and records for this station are not official NWS values.
T = Trace of Precipitation, MM = Missing Value Source: NWS Daily Summary

Daily Weather History Graph

Daily Weather History Graph

Search for Another Location

Airport or City:

Trip Planner

Search our weather history database for the weather conditions in past years. The results will help you decide how hot, cold, wet, or windy it might be!

Date:

Astronomy

Oct. 04, 2011 Rise Set
Actual Time 7:18 AM CDT 6:57 PM CDT
Civil Twilight 6:51 AM CDT 7:24 PM CDT
Nautical Twilight 6:20 AM CDT 7:55 PM CDT
Astronomical Twilight 5:49 AM CDT 8:26 PM CDT
Moon 2:56 PM CDT (10/4) 12:06 AM CDT (10/4)
Length of Visible Light 12h 33m
Length of Day
11h 39m
First Quarter, 56% of the Moon is Illuminated
Oct 4
First Quarter
Oct 11
Full
Oct 19
Last Quarter
Oct 26
New
Nov 2
First Quarter

Hourly Weather History & Observations

Time (CDT) Temp. Dew Point Humidity Pressure Visibility Wind Dir Wind Speed Gust Speed Precip Events Conditions
12:53 AM 57.9 °F 42.1 °F 56% 30.17 in 10.0 mi SSE 8.1 mph - N/A   Clear
1:53 AM 57.0 °F 41.0 °F 55% 30.17 in 10.0 mi Calm Calm - N/A   Clear
2:53 AM 57.9 °F 42.1 °F 56% 30.17 in 10.0 mi SE 5.8 mph - N/A   Clear
3:53 AM 57.0 °F 43.0 °F 59% 30.17 in 10.0 mi SE 5.8 mph - N/A   Clear
4:53 AM 57.0 °F 43.0 °F 59% 30.17 in 10.0 mi SSE 8.1 mph - N/A   Clear
6:53 AM 55.0 °F 44.1 °F 67% 30.20 in 10.0 mi SSE 8.1 mph - N/A   Clear
7:53 AM 55.0 °F 44.1 °F 67% 30.21 in 10.0 mi SSE 8.1 mph - N/A   Clear
9:53 AM 69.1 °F 42.1 °F 38% 30.23 in 10.0 mi South 9.2 mph - N/A   Clear
10:53 AM 73.9 °F 41.0 °F 30% 30.22 in 10.0 mi South 11.5 mph - N/A   Clear
11:53 AM 78.1 °F 42.1 °F 28% 30.20 in 10.0 mi South 9.2 mph - N/A   Clear
2:53 PM 86.0 °F 39.0 °F 19% 30.13 in 10.0 mi South 16.1 mph - N/A   Clear
3:53 PM 86.0 °F 37.9 °F 18% 30.12 in 10.0 mi South 11.5 mph - N/A   Clear
4:53 PM 84.9 °F 37.9 °F 19% 30.11 in 10.0 mi South 9.2 mph 17.3 mph N/A   Clear
5:53 PM 82.9 °F 39.0 °F 21% 30.10 in 10.0 mi South 8.1 mph - N/A   Clear
7:53 PM 71.1 °F 39.9 °F 32% 30.12 in 10.0 mi SSE 6.9 mph - N/A   Clear
8:53 PM 66.9 °F 39.9 °F 37% 30.13 in 10.0 mi SSE 6.9 mph - N/A   Clear
9:53 PM 64.0 °F 41.0 °F 43% 30.13 in 10.0 mi South 4.6 mph - N/A   Clear
10:53 PM 61.0 °F 41.0 °F 48% 30.14 in 10.0 mi SSE 5.8 mph - N/A   Clear
11:53 PM 59.0 °F 42.1 °F 53% 30.14 in 10.0 mi South 4.6 mph - N/A   Clear